This is the latest recevied weather packets stored in our database for station/object DC4XK-10. If no packets are shown the sender has not sent any weather packets the latest 10 day(s).
| Time | Temp. | Humidity | Pressure | Rain* | Wind** | Luminosity | Snow |
|---|---|---|---|---|---|---|---|
| 1777663131 | 12.78° C | 71% | 1022.4 hPa | 0 mm | 0 m/s | - | - |
| 1777662531 | 12.78° C | 69% | 1022.5 hPa | 0 mm | 0 m/s | - | - |
| 1777661931 | 13.33° C | 68% | 1022.4 hPa | 0 mm | 0 m/s | - | - |
| 1777661331 | 13.89° C | 65% | 1022.3 hPa | 0 mm | 0 m/s | - | - |
| 1777660731 | 14.44° C | 63% | 1022.4 hPa | 0 mm | 0 m/s | - | - |
| 1777660131 | 14.44° C | 62% | 1022.4 hPa | 0 mm | 0 m/s | - | - |
| 1777659531 | 15.56° C | 61% | 1022.5 hPa | 0 mm | 0 m/s | - | - |
| 1777658931 | 16.11° C | 60% | 1022.6 hPa | 0 mm | 0 m/s | - | - |
| 1777658332 | 16.67° C | 58% | 1022.5 hPa | 0 mm | 0 m/s | - | - |
| 1777657731 | 17.78° C | 58% | 1022.6 hPa | 0 mm | 0 m/s | - | - |
| 1777657130 | 17.78° C | 55% | 1022.6 hPa | 0 mm | 0 m/s | - | - |
| 1777656533 | 18.33° C | 53% | 1022.5 hPa | 0 mm | 0 m/s | - | - |
| 1777655931 | 18.89° C | 54% | 1022.8 hPa | 0 mm | 0 m/s | - | - |
| 1777655330 | 18.89° C | 51% | 1022.9 hPa | 0 mm | 0 m/s | - | - |
| 1777654733 | 19.44° C | 51% | 1023 hPa | 0 mm | 0 m/s | - | - |
| 1777654131 | 20° C | 51% | 1023.2 hPa | 0 mm | 0 m/s | - | - |
| 1777653531 | 20.56° C | 52% | 1023.4 hPa | 0 mm | 0 m/s | - | - |
| 1777652932 | 20.56° C | 51% | 1023.6 hPa | 0 mm | 0.45 m/s, 107° | - | - |
| 1777652331 | 21.11° C | 51% | 1023.5 hPa | 0 mm | 0 m/s | - | - |
| 1777651731 | 21.11° C | 50% | 1023.7 hPa | 0 mm | 0 m/s | - | - |
| 1777651131 | 21.11° C | 47% | 1024 hPa | 0 mm | 0 m/s | - | - |
| 1777650531 | 21.67° C | 45% | 1023.8 hPa | 0 mm | 0.45 m/s, 55° | - | - |
| 1777649931 | 22.78° C | 42% | 1024.1 hPa | 0 mm | 0.45 m/s, 106° | - | - |
| 1777649331 | 21.67° C | 44% | 1024.3 hPa | 0 mm | 0 m/s | - | - |
| 1777648731 | 21.67° C | 45% | 1024.3 hPa | 0 mm | 0.45 m/s, 48° | - | - |
* Rain latest hour (hover to see other rain measurements)
** Current wind speed in m/s (hover to see current wind gust speed)